This is the latest recevied weather packets stored in our database for station/object N4UUJ-1. If no packets are shown the sender has not sent any weather packets the latest 10 day(s).
| Time | Temp. | Humidity | Pressure | Rain* | Wind** | Luminosity | Snow |
|---|---|---|---|---|---|---|---|
| 1788227570 | 21.67° C | 75% | 1023 hPa | 0 mm | - | - | - |
| 1788225769 | 22.22° C | 75% | 1022.7 hPa | 0 mm | - | - | - |
| 1788223981 | 23.33° C | 75% | 1022.5 hPa | 0 mm | - | - | - |
| 1788222167 | 24.44° C | 75% | 1022.3 hPa | 0 mm | - | - | - |
| 1788220366 | 26.67° C | 75% | 1022.4 hPa | 0 mm | - | - | - |
| 1788218565 | 26.67° C | 75% | 1022.4 hPa | 0 mm | - | - | - |
| 1788216764 | 27.22° C | 75% | 1022.7 hPa | 0 mm | - | - | - |
| 1788214963 | 28.33° C | 75% | 1022.7 hPa | 0 mm | - | - | - |
| 1788213162 | 29.44° C | 75% | 1022.7 hPa | 0 mm | - | - | - |
| 1788211361 | 30° C | 75% | 1022.9 hPa | 0 mm | - | - | - |
| 1788209560 | 30° C | 75% | 1023 hPa | 0 mm | - | - | - |
| 1788207759 | 28.89° C | 75% | 1023.3 hPa | 0 mm | - | - | - |
| 1788205958 | 28.33° C | 75% | 1023.6 hPa | 0 mm | - | - | - |
| 1788204157 | 30° C | 75% | 1023.8 hPa | 0 mm | - | - | - |
| 1788202356 | 30° C | 75% | 1024 hPa | 0 mm | - | - | - |
| 1788200555 | 29.44° C | 75% | 1024.3 hPa | 0 mm | - | - | - |
| 1788198754 | 29.44° C | 75% | 1024.6 hPa | 0 mm | - | - | - |
| 1788196953 | 30.56° C | 75% | 1024.6 hPa | 0 mm | - | - | - |
| 1788195152 | 30° C | 75% | 1024.9 hPa | 0 mm | - | - | - |
| 1788193351 | 29.44° C | 75% | 1025.2 hPa | 0 mm | - | - | - |
| 1788191550 | 29.44° C | 75% | 1025 hPa | 0 mm | - | - | - |
| 1788189749 | 28.33° C | 75% | 1025.2 hPa | 0 mm | - | - | - |
| 1788187948 | 27.78° C | 75% | 1025.2 hPa | 0 mm | - | - | - |
| 1788186147 | 26.11° C | 75% | 1025.1 hPa | 0 mm | - | - | - |
| 1788184346 | 25.56° C | 75% | 1025 hPa | 0 mm | - | - | - |
* Rain latest hour (hover to see other rain measurements)
** Current wind speed in m/s (hover to see current wind gust speed)